Regional Weather Roundup
Issued by NWS Kansas City/Pleasant Hill, MO

Home | Current Version | Previous Version | Text Only | Print | Product List | Glossary On
Versions: 1 2 3 4 5 6 7 8 9 10 11 12 13 14 15 16 17 18 19 20 21 22 23 24 25 26 27 28 29 30 31 32 33 34 35 36 37 38 39 40 41 42 43 44 45 46 47 48 49 50
881
ASUS43 KEAX 142210
RWREAX

WEATHER ROUNDUP FOR EASTERN KANSAS AND NORTHWEST MISSOURI
NATIONAL WEATHER SERVICE KANSAS CITY/PLEASANT HILL MO
400 PM CST THU DEC 14 2017

KSZ040-057-103>105-MOZ028-029-037-043-142300-
...KANSAS CITY METROPOLITAN AREA...

CITY           SKY/WX    TMP DP  RH WIND       PRES   REMARKS
K.C. INTL      MOCLDY    41  24  51 NW5       30.07R
K.C. DOWNTOWN  CLOUDY    42  24  49 NW7       30.07F
LEES SUMMIT    CLOUDY    40  24  53 N6        30.07F
OLATHE - IXD   CLOUDY    40  25  55 CALM      30.08S
OLATHE - OJC   CLOUDY    39  25  57 NW3       30.07S
LAWRENCE       CLOUDY    44  26  49 NW6       30.07S

$$

MOZ001>008-011>017-020>025-030>033-038>040-044>046-053-054-142300-
...NORTHERN AND CENTRAL MISSOURI...

CITY           SKY/WX    TMP DP  RH WIND       PRES   REMARKS
ST. JOSEPH     CLOUDY    42  26  53 NW7       30.07S
MOSBY            N/A     39  23  52 NW5       30.08S
WARRENSBURG    CLOUDY    36  25  64 E5        30.09S WCI  32
WHITEMAN AFB   CLOUDY    36  23  60 CALM      30.05R
CLINTON        CLOUDY    37  25  60 CALM      30.10S
SEDALIA        CLOUDY    36  25  64 N8        30.10S WCI  30
WARSAW         NOT AVBL
CHILLICOTHE      N/A     36  23  59 VRB6      30.10R WCI  31
KIRKSVILLE     CLOUDY    31  24  75 NW5       30.08R WCI  26

$$

MOZ041-047>049-056>058-063>065-088>090-097-142300-
...EASTERN AND SOUTHERN MISSOURI...

CITY           SKY/WX    TMP DP  RH WIND       PRES   REMARKS
ST. LOUIS INTL CLOUDY    32  20  61 N7        30.10R WCI  26
SPIRIT OF STL  CLOUDY    32  20  61 NW5       30.10R WCI  27
COLUMBIA       CLOUDY    33  21  61 NW7       30.09R WCI  27
JEFFERSON CITY CLOUDY    35  22  58 N5        30.10S WCI  31
ROLLA          CLOUDY    34  21  59 W12       30.07R WCI  25
OSAGE BEACH    CLOUDY    36  21  54 NW7       30.10R WCI  30
SPRINGFIELD    CLOUDY    38  24  57 N9        30.07S WCI  31
BRANSON        CLOUDY    37  23  56 N13       30.08S WCI  29
JOPLIN         CLOUDY    40  28  62 NW7       30.10S
WEST PLAINS    CLOUDY    38  20  48 NW12      30.06R WCI  30

$$

IAZ060-094-KSZ022-034>040-054-083-096-NEZ052-066-093-142300-
...KANSAS...SOUTHEAST NEBRASKA AND IOWA...

CITY           SKY/WX    TMP DP  RH WIND       PRES   REMARKS
TOPEKA         CLOUDY    46  27  47 W12       30.07S
MANHATTAN      CLOUDY    45  29  53 W7        30.08R
EMPORIA        CLOUDY    45  25  45 W8        30.07S
CHANUTE        CLEAR     46  25  43 NW6       30.09S
WICHITA        PTSUNNY   50  27  40 NW15      30.09R
OMAHA          CLOUDY    41  25  53 N8        30.07R
LINCOLN        LGT RAIN  39  32  76 NW12      30.10R WCI  32
FALLS CITY     CLOUDY    42  24  49 NW8       30.06R
LAMONI         CLOUDY    33  23  66 W9        30.06S WCI  25
DES MOINES     CLOUDY    32  19  58 NW5       30.07R WCI  27

$$





USA.gov is the U.S. government's official web portal to all federal, state and local government web resources and services.